Regional Weather Roundup
Issued by NWS

Home | Current Version | Previous Version | Text Only | Print | Product List | Glossary On
Versions: 1 2 3 4 5 6 7 8 9 10 11 12 13 14 15 16 17 18 19 20 21 22 23 24 25 26 27 28 29 30 31 32 33 34 35 36 37 38 39 40 41 42 43 44 45 46 47 48 49 50
000
ASUS43 KMPX 170710
RWRMN
WEATHER ROUNDUP FOR MINNESOTA
NATIONAL WEATHER SERVICE TWIN CITIES/CHANHASSEN MN
200 AM CDT THU AUG 17 2017


NOTE: "FAIR" INDICATES FEW OR NO CLOUDS BELOW 12,000 FEET WITH NO
SIGNIFICANT WEATHER AND/OR OBSTRUCTIONS TO VISIBILITY. N/A MEANS
CURRENT SKY AND/OR WEATHER CONDITIONS ARE NOT AVAILABLE.

MNZ060>063-068>070-170800-
   Twin Cities Metro

CITY           SKY/WX    TMP DP  RH WIND       PRES   REMARKS
TWIN CITIES    CLOUDY    69  66  90 SE15      29.52F
ST PAUL        CLOUDY    70  68  93 SE14      29.54F
CRYSTAL        LGT RAIN  69  65  86 SE9       29.51F FOG
BLAINE         PTCLDY    72  70  94 S5        29.53F
LAKEVILLE      DRIZZLE   66  66 100 S13G20    29.53F
EDEN PRAIRIE   LGT RAIN  69  67  93 SE13      29.49F FOG
SOUTH ST PAUL  CLOUDY    68  68  99 S9        29.53F
LAKE ELMO      CLOUDY    70  68  94 S14G22    29.55F
$$
MNZ001>005-007-008-013>017-022>024-027-028-170800-
   Northwest Minnesota

CITY           SKY/WX    TMP DP  RH WIND       PRES   REMARKS
BEMIDJI        RAIN      62  61  97 NE3       29.77F
HALLOCK        CLOUDY    57  57 100 NE3       29.83F FOG
ROSEAU         CLOUDY    63  57  82 NE6       29.82F
WARROAD        CLOUDY    63  59  88 E8        29.83F
CROOKSTON      CLOUDY    63  63 100 N8        29.81S
FOSSTON        RAIN      61  61 100 N7        29.79F
DETROIT LAKES  RAIN      64  63  94 N5        29.76F
MOORHEAD       CLOUDY    63  63 100 N13       29.77F
PARK RAPIDS    RAIN      64  62  93 N8        29.73F FOG
MAHNOMEN       DRIZZLE   63  62  99 N10       29.77F
$$
MNZ006-009>011-018-025>026-170800-
   North Central Minnesota

CITY           SKY/WX    TMP DP  RH WIND       PRES   REMARKS
BAUDETTE       RAIN      60  60 100 E5        29.81F FOG
FLAG ISLAND    CLOUDY    63  57  82 NE3       29.83F
INTL FALLS     LGT RAIN  60  59  96 NE3       29.82F FOG
WASKISH        LGT RAIN  63  61  94 NE5       29.80F
BIG FORK       RAIN      61  59  94 E5        29.79F
LONGVILLE      RAIN      61  61 100 NE5       29.73F
GRAND RAPIDS   RAIN      59  58  96 VRB6      29.76F
CRANE LAKE     RAIN      57  57 100 CALM      29.84S
ORR            LGT RAIN  57  55  94 E5        29.79F
COOK           HVY RAIN  57  57 100 CALM      29.81F
WALKER         RAIN      61  60  97 NE5       29.75F
$$
MNZ012-019>021-037-170800-
   Northeast Minnesota

CITY           SKY/WX    TMP DP  RH WIND       PRES   REMARKS
DULUTH         RAIN      60  60 100 E20       29.71F
ELY            LGT RAIN  57  55  94 NE3       29.80F
HIBBING        LGT RAIN  58  57  97 N8        29.77F
EVELETH        LGT RAIN  58  55  90 NE7       29.79F
DULUTH HARBOR  LGT RAIN  63  61  94 NE26G33   29.71F
TWO HARBORS    RAIN      63  57  82 E9G16     29.73F
GRAND MARAIS     N/A     64  58  80 NE12      29.80F
G MARAIS ARPRT CLOUDY    57  52  82 NE8       29.84F
$$
MNZ029>031-032-039>041-046>048-054>057-064-170800-
   West Central Minnesota

CITY           SKY/WX    TMP DP  RH WIND       PRES   REMARKS
FERGUS FALLS   DRIZZLE   64  64 100 N8        29.73S
WHEATON        CLOUDY    64  63  94 NW14G20   29.75S
MORRIS         LGT RAIN  66  64  94 N12G17    29.69F
ALEXANDRIA     LGT RAIN  65  65 100 N10       29.70F
ELBOW LAKE     DRIZZLE   64  64 100 NW10      29.72S
WADENA         LGT RAIN  63  63 100 N6        29.72
GLENWOOD       CLOUDY    64  63  94 N15       29.67F
APPLETON       CLOUDY    66  64  94 N10       29.67F
BENSON         RAIN      66  63  88 N16       29.66F
ORTONVILLE     LGT RAIN  64  63  94 MISG      29.71S
MADISON        DRIZZLE   68  68 100 NW16G23   29.69S
WILLMAR        HVY RAIN  64  64 100 N25G37    29.58R
$$
MNZ033>034-036-042>043-049>051-058-059-170800-
   Central Minnesota

CITY           SKY/WX    TMP DP  RH WIND       PRES   REMARKS
ST CLOUD       LGT RAIN  65  65 100 NE12G20   29.55F
SAUK CENTRE    HVY RAIN  64  63  97 NW20G28   29.63F
PAYNESVILLE    RAIN      64  64  98 N16G25    29.58S
AITKIN         LGT RAIN  61  57  88 N8        29.67F
PINE RIVER     RAIN      59  57  94 N8        29.75F
BRAINERD       RAIN      61  60  97 N14       29.67F FOG
STAPLES        RAIN      63  61  94 N6        29.70F
LONG PRAIRIE   RAIN      61  61 100 NW14G22   29.66F
LITTLE FALLS   LGT RAIN  61  59  94 N10G21    29.62F
LITCHFIELD     CLOUDY    66  66 100 N16G22    29.52F
BUFFALO        DRIZZLE   67  65  92 E6        29.52F
MAPLE LAKE     CLOUDY    68  67  96 NE10      29.53F
HUTCHINSON     CLOUDY    69  68  98 NE9       29.49F
$$
MNZ037-044-045-052-053-170800-
   East Central Minnesota

CITY           SKY/WX    TMP DP  RH WIND       PRES   REMARKS
PRINCETON      CLOUDY    68  66  94 NE9       29.55F
MORA           DRIZZLE   63  63 100 NE7G23    29.60F
RUSH CITY      HVY RAIN  66  64  94 NE9G18    29.57F
MOOSE LAKE     RAIN      61  59  94 NE10G18   29.66F
HINCKLEY       LGT RAIN  63  63 100 NE9       29.62F
CLOQUET        RAIN      61  57  88 E8G17     29.71F
MCGREGOR       CLOUDY    61  59  94 N7        29.70F
$$
MNZ071>073-080-081-089-090-097-098-170800-
   Southwest Minnesota

CITY           SKY/WX    TMP DP  RH WIND       PRES   REMARKS
MONTEVIDEO     RAIN      64  64 100 N18G24    29.65S
GRANITE FALLS  CLOUDY    66  65  96 NW17G25   29.64S
CANBY          CLOUDY    66  64  94 W14G20    29.71S
MARSHALL       LGT RAIN  65  64  97 NW15      29.67R
REDWOOD FALLS  HVY RAIN  65  63  93 NW22G36   29.54F FOG
OLIVIA         TSTM      64  63  94 NW26G38   29.51R
PIPESTONE      CLOUDY    66  64  94 NW14G21   29.73S
WINDOM         RAIN      66  63  88 W17G23    29.65R
WORTHINGTON    CLOUDY    64  63  96 W10       29.72R
JACKSON        CLOUDY    66  63  88 W14G23    29.68R
TRACY          RAIN      65  65  99 NW14G23   29.67R
SLAYTON        CLOUDY    64  59  84 W12       29.71R
$$
MNZ065>067-074>077-082>085-091>093-170800-
   South Central Minnesota

CITY           SKY/WX    TMP DP  RH WIND       PRES   REMARKS
MANKATO        CLOUDY    66  64  93 SW16G28   29.54F
NEW ULM        CLOUDY    66  61  82 W22G31    29.51S
ST JAMES       RAIN      66  63  88 SW16G24   29.61R
FAIRMONT       CLOUDY    67  63  87 W13       29.65R
GLENCOE        DRIZZLE   68  68 100 E8        29.48F
FARIBAULT      CLOUDY    66  64  94 S12G17    29.56F
OWATONNA       CLOUDY    68  63  83 SW22G28   29.59F
WASECA         CLOUDY    64  61  88 SW18G25   29.60F
ALBERT LEA     CLOUDY    70  66  88 SW13G18   29.64S
$$
MNZ078>079-086>088-094>096-170800-
   Southeast Minnesota

CITY           SKY/WX    TMP DP  RH WIND       PRES   REMARKS
ROCHESTER      CLOUDY    67  65  93 S13       29.64F
RED WING       CLOUDY    72  64  78 MISG      29.57F
STANTON        CLOUDY    69  64  85 S12G22    29.55F
DODGE CENTER   CLOUDY    66  64  94 SW14      29.62F
WINONA         PTCLDY    73  70  88 S5        29.63F
AUSTIN         CLOUDY    66  63  88 SW12      29.64F
PRESTON        CLOUDY    66  63  87 SW12G20   29.68S
$$
ABBREVIATIONS USED IN REMARKS
   TC - TEMPERATURES IN CELSIUS
  WCI - WIND CHILL INDEX
   HX - HEAT INDEX
  VSB - VISIBILITY
$$




USA.gov is the U.S. government's official web portal to all federal, state and local government web resources and services.